TimeEDT,TemperatureF,Dew PointF,Humidity,Sea Level PressureIn,VisibilityMPH,Wind Direction,Wind SpeedMPH,Gust SpeedMPH,PrecipitationIn,Events,Conditions,WindDirDegrees,DateUTC
12:53 AM,37.9,34.0,86,29.67,9.0,Calm,Calm,-,0.00,,Overcast,0,2014-03-12 04:53:00
1:53 AM,37.0,34.0,89,29.65,6.0,Calm,Calm,-,N/A,,Overcast,0,2014-03-12 05:53:00
2:53 AM,37.9,34.0,86,29.63,8.0,North,6.9,-,0.00,Rain,Light Rain,360,2014-03-12 06:53:00
3:53 AM,37.9,35.1,89,29.59,7.0,NNE,3.5,-,0.00,,Overcast,20,2014-03-12 07:53:00
4:18 AM,37.9,35.1,89,29.54,7.0,NE,5.8,-,N/A,,Overcast,50,2014-03-12 08:18:00
4:27 AM,37.9,35.1,89,29.54,6.0,ENE,5.8,-,N/A,,Overcast,60,2014-03-12 08:27:00
4:42 AM,37.9,34.0,86,29.52,4.0,East,9.2,-,N/A,,Overcast,90,2014-03-12 08:42:00
4:53 AM,37.0,34.0,89,29.53,4.0,East,10.4,-,N/A,,Overcast,90,2014-03-12 08:53:00
5:53 AM,37.0,34.0,89,29.50,6.0,East,4.6,-,N/A,,Overcast,80,2014-03-12 09:53:00
6:53 AM,37.0,34.0,89,29.46,5.0,ENE,8.1,-,N/A,,Overcast,70,2014-03-12 10:53:00
7:20 AM,36.0,34.0,93,29.44,2.5,East,5.8,-,N/A,,Overcast,80,2014-03-12 11:20:00
7:27 AM,36.0,34.0,93,29.43,3.0,ENE,6.9,-,N/A,,Overcast,70,2014-03-12 11:27:00
7:53 AM,37.0,34.0,89,29.44,3.0,East,5.8,-,0.00,Rain,Light Rain,80,2014-03-12 11:53:00
8:00 AM,37.0,34.0,89,29.42,4.0,ENE,6.9,-,0.00,Rain,Light Rain,70,2014-03-12 12:00:00
8:28 AM,36.0,34.0,93,29.39,2.5,ENE,8.1,-,0.04,Rain,Rain,70,2014-03-12 12:28:00
8:49 AM,35.6,33.8,93,29.38,4.0,ENE,8.1,-,0.06,Rain,Light Rain,60,2014-03-12 12:49:00
8:53 AM,36.0,34.0,93,29.40,5.0,NE,9.2,-,0.06,Rain,Light Rain,50,2014-03-12 12:53:00
9:09 AM,37.0,34.0,89,29.39,2.0,NE,5.8,-,0.03,Rain,Rain,50,2014-03-12 13:09:00
9:53 AM,36.0,33.1,89,29.39,2.5,Variable,5.8,-,0.16,Rain,Rain,0,2014-03-12 13:53:00
10:04 AM,36.0,33.1,89,29.35,3.0,ENE,9.2,-,0.04,Rain,Rain,70,2014-03-12 14:04:00
10:51 AM,35.6,33.8,93,29.30,2.0,East,9.2,-,0.15,Rain,Rain,80,2014-03-12 14:51:00
10:53 AM,36.0,33.1,89,29.32,2.0,East,11.5,-,0.16,Rain,Rain,80,2014-03-12 14:53:00
11:05 AM,36.0,33.1,89,29.27,5.0,ENE,13.8,20.7,0.02,Rain,Light Rain,60,2014-03-12 15:05:00
11:53 AM,35.1,32.0,89,29.25,4.0,East,9.2,17.3,0.05,Rain,Rain,80,2014-03-12 15:53:00
12:53 PM,34.0,30.9,89,29.19,7.0,ENE,11.5,18.4,0.04,Rain,Light Rain,70,2014-03-12 16:53:00
1:13 PM,32.0,28.9,88,29.17,1.8,NNE,10.4,-,0.03,Rain,Rain,30,2014-03-12 17:13:00
1:21 PM,32.0,28.9,88,29.17,2.0,NNE,9.2,-,0.05,Rain,Light Freezing Rain,30,2014-03-12 17:21:00
1:30 PM,32.0,28.9,88,29.18,2.5,NNE,12.7,17.3,0.07,Rain,Light Freezing Rain,20,2014-03-12 17:30:00
1:40 PM,30.9,27.0,85,29.18,3.0,NNE,11.5,19.6,0.07,Rain,Light Freezing Rain,20,2014-03-12 17:40:00
1:47 PM,30.2,26.6,86,29.17,1.8,North,12.7,19.6,0.08,Rain,Light Freezing Rain,360,2014-03-12 17:47:00
1:53 PM,28.9,26.1,89,29.22,0.8,North,17.3,25.3,0.08,Snow,Light Snow,10,2014-03-12 17:53:00
2:04 PM,28.0,24.1,85,29.14,0.5,NNE,12.7,24.2,0.00,Fog-Snow,Light Snow,20,2014-03-12 18:04:00
2:19 PM,27.0,21.9,81,29.15,2.0,NNE,16.1,24.2,0.00,,Overcast,20,2014-03-12 18:19:00
2:53 PM,25.0,19.9,81,29.18,2.0,NNE,12.7,27.6,0.01,Snow,Light Snow,30,2014-03-12 18:53:00
3:17 PM,23.0,17.1,78,29.17,2.0,NNE,18.4,27.6,0.01,Snow,Light Snow,30,2014-03-12 19:17:00
3:23 PM,23.0,18.0,81,29.16,0.8,NNE,10.4,29.9,0.02,Snow,Light Snow,30,2014-03-12 19:23:00
3:31 PM,21.9,17.1,82,29.16,0.5,NNE,13.8,29.9,0.02,Snow,Snow,20,2014-03-12 19:31:00
3:36 PM,21.9,18.0,85,29.16,0.2,NNE,13.8,29.9,0.03,Fog-Snow,Snow,20,2014-03-12 19:36:00
3:53 PM,21.0,16.0,81,29.23,0.8,North,18.4,25.3,0.03,Snow,Light Snow,10,2014-03-12 19:53:00
3:59 PM,21.0,16.0,81,29.18,1.0,NNE,17.3,26.5,0.00,Snow,Light Snow,30,2014-03-12 19:59:00
4:11 PM,21.0,15.1,78,29.17,1.8,NNE,16.1,27.6,0.00,Snow,Light Snow,30,2014-03-12 20:11:00
4:22 PM,19.9,14.0,78,29.18,3.0,NNE,18.4,29.9,0.00,Snow,Light Snow,30,2014-03-12 20:22:00
4:40 PM,19.9,12.9,74,29.20,2.0,NNE,20.7,35.7,0.00,Snow,Light Snow,20,2014-03-12 20:40:00
4:53 PM,19.9,14.0,78,29.28,2.0,North,15.0,23.0,0.00,Snow,Light Snow,10,2014-03-12 20:53:00
5:01 PM,19.9,14.0,78,29.25,1.0,North,11.5,26.5,0.00,Snow,Light Snow,360,2014-03-12 21:01:00
5:08 PM,19.9,14.0,78,29.25,0.5,NNE,15.0,32.2,0.00,Snow,Snow,20,2014-03-12 21:08:00
5:18 PM,19.9,14.0,78,29.26,0.5,North,18.4,29.9,0.01,Snow,Snow,360,2014-03-12 21:18:00
5:29 PM,19.0,14.0,81,29.27,0.2,North,15.0,27.6,0.01,Snow,Heavy Snow,360,2014-03-12 21:29:00
5:53 PM,19.0,14.0,81,29.35,0.5,NNW,19.6,35.7,0.01,Snow,Snow,340,2014-03-12 21:53:00
6:03 PM,18.0,12.9,81,29.31,0.2,North,21.9,41.4,0.00,Snow,Heavy Snow,350,2014-03-12 22:03:00
6:07 PM,18.0,12.9,81,29.32,0.5,North,17.3,41.4,0.00,Snow,Snow,350,2014-03-12 22:07:00
6:34 PM,17.1,10.9,77,29.37,0.2,North,19.6,33.4,0.00,Snow,Heavy Snow,350,2014-03-12 22:34:00
6:39 PM,16.0,10.9,81,29.36,0.5,North,19.6,36.8,0.00,Snow,Snow,350,2014-03-12 22:39:00
6:45 PM,16.0,10.9,81,29.37,0.2,North,16.1,29.9,0.00,Snow,Heavy Snow,360,2014-03-12 22:45:00
6:53 PM,16.0,10.9,81,29.43,0.2,North,16.1,23.0,0.00,,Haze,350,2014-03-12 22:53:00
7:01 PM,16.0,10.9,81,29.38,0.5,North,16.1,-,N/A,,Haze,360,2014-03-12 23:01:00
7:08 PM,16.0,10.9,81,29.38,0.5,North,15.0,23.0,N/A,,Haze,350,2014-03-12 23:08:00
7:30 PM,14.0,9.0,80,29.42,1.0,NNW,19.6,29.9,N/A,,Haze,340,2014-03-12 23:30:00
7:39 PM,14.0,9.0,80,29.43,1.2,North,12.7,29.9,N/A,,Haze,350,2014-03-12 23:39:00
7:53 PM,14.0,9.0,80,29.51,1.5,NNW,18.4,25.3,N/A,,Haze,340,2014-03-12 23:53:00
8:23 PM,14.0,8.1,77,29.48,1.5,NNW,13.8,28.8,0.00,Snow,Light Snow,330,2014-03-13 00:23:00
8:34 PM,14.0,8.1,77,29.49,2.0,NNW,17.3,27.6,0.00,Snow,Light Snow,330,2014-03-13 00:34:00
8:53 PM,12.9,6.1,74,29.58,2.5,NW,20.7,28.8,0.00,Snow,Light Snow,320,2014-03-13 00:53:00
9:05 PM,12.0,5.0,73,29.52,3.0,NNW,17.3,27.6,0.00,Snow,Light Snow,330,2014-03-13 01:05:00
9:20 PM,12.0,5.0,73,29.53,2.5,NNW,12.7,-,0.00,Snow,Light Snow,340,2014-03-13 01:20:00
9:53 PM,12.0,5.0,73,29.61,2.0,NNW,13.8,24.2,0.00,Snow,Light Snow,340,2014-03-13 01:53:00
10:23 PM,10.9,6.1,81,29.56,1.2,NNW,11.5,-,0.00,Snow,Light Snow,330,2014-03-13 02:23:00
10:39 PM,10.9,3.9,73,29.56,2.5,NW,20.7,27.6,0.00,Snow,Light Snow,320,2014-03-13 02:39:00
10:53 PM,10.0,3.0,73,29.64,3.0,NNW,17.3,27.6,0.00,Snow,Light Snow,330,2014-03-13 02:53:00
11:53 PM,9.0,1.9,73,29.66,4.0,NNW,17.3,23.0,0.00,Snow,Light Snow,330,2014-03-13 03:53:00